Weather History for Asheville, NC

Change the Weather History Date:

Friday, May 14, 2010

  Actual Average Record
Temperature  
Mean Temperature 72 °F 63 °F  
Max Temperature 84 °F 74 °F 89 °F (1956)
Min Temperature 60 °F 51 °F 30 °F (1895)
Degree Days  
Heating Degree Days 0 4  
Month to date heating degree days 45 68  
Since 1 July heating degree days 4450 4140  
Cooling Degree Days 7 1  
Month to date cooling degree days 33 13  
Year to date cooling degree days 38 21  
Growing Degree Days 21 (Base 50)    
Moisture  
Dew Point 63 °F    
Average Humidity 74    
Maximum Humidity 100    
Minimum Humidity 47    
Precipitation  
Precipitation 0.67 in 0.12 in 2.93 in (2009)
Month to date precipitation 1.97 1.59  
Year to date precipitation 18.74 16.18  
Snow  
Snow 0.00 in 0.00 in 0.00 in ()
Month to date snowfall 0.0 0.0  
Since 1 July snowfall 39.2 9.9  
Snow Depth 0.00 in    
Sea Level Pressure  
Sea Level Pressure 30.26 in    
Wind  
Wind Speed 4 mph (West)    
Max Wind Speed 8 mph    
Max Gust Speed 10 mph    
Visibility 6 miles    
Events Rain , Thunderstorm    
T = Trace of Precipitation, MM = Missing Value Source: NWS Daily Summary

Daily Weather History Graph

Daily Weather History Graph

Search for Another Location

Airport:

Trip Planner

Search our weather history database for the weather conditions in past years. The results will help you decide how hot, cold, wet, or windy it might be!

Date:

Astronomy

May. 14, 2010 Rise Set
Actual Time 6:26 AM EDT 8:27 PM EDT
Civil Twilight 5:58 AM EDT 8:55 PM EDT
Nautical Twilight 5:23 AM EDT 9:29 PM EDT
Astronomical Twilight 4:47 AM EDT 10:06 PM EDT
Moon 6:32 AM EDT (5/14) 9:32 PM EDT (5/14)
Length of Visible Light 14h 57m
Length of Day
14h 00m
New Moon, 0% of the Moon is Illuminated
May 14
New Moon
May 20
First Quarter
May 27
Full
Jun 4
Last Quarter
Jun 12
New

Hourly Weather History & Observations

Time (EDT) Temp. Heat Index Dew Point Humidity Pressure Visibility Wind Dir Wind Speed Gust Speed Precip Events Conditions
12:54 AM 68.0 °F - 64.0 °F 87% 30.24 in 10.0 mi Calm Calm - N/A   Clear
1:54 AM 66.9 °F - 64.0 °F 90% 30.22 in 9.0 mi Calm Calm - N/A   Clear
2:54 AM 66.0 °F - 64.0 °F 93% 30.22 in 8.0 mi Calm Calm - N/A   Clear
3:54 AM 64.0 °F - 63.0 °F 96% 30.22 in 6.0 mi Calm Calm - N/A   Clear
4:54 AM 63.0 °F - 62.1 °F 97% 30.20 in 4.0 mi Calm Calm - N/A   Clear
5:54 AM 63.0 °F - 61.0 °F 93% 30.23 in 6.0 mi Calm Calm - N/A   Clear
6:31 AM 60.8 °F - 60.8 °F 100% 30.32 in 2.0 mi Calm Calm - N/A   Clear
6:54 AM 61.0 °F - 60.1 °F 97% 30.25 in 3.0 mi Calm Calm - N/A   Clear
7:10 AM 60.8 °F - 60.8 °F 100% 30.34 in 1.8 mi Calm Calm - N/A   Clear
7:14 AM 60.8 °F - 60.8 °F 100% 30.34 in 1.0 mi Calm Calm - N/A   Clear
7:23 AM 62.6 °F - 60.8 °F 94% 30.34 in 2.0 mi Calm Calm - N/A   Clear
7:25 AM 62.6 °F - 60.8 °F 94% 30.34 in 3.0 mi Calm Calm - N/A   Partly Cloudy
7:54 AM 64.9 °F - 63.0 °F 93% 30.28 in 4.0 mi NW 3.5 mph - N/A   Partly Cloudy
8:54 AM 69.1 °F - 64.0 °F 84% 30.29 in 6.0 mi Calm Calm - N/A   Haze
9:54 AM 71.1 °F - 64.9 °F 81% 30.29 in 7.0 mi Calm Calm - N/A   Clear
10:54 AM 75.0 °F - 64.0 °F 69% 30.27 in 10.0 mi Calm Calm - N/A   Clear
11:54 AM 80.1 °F 81.7 °F 64.0 °F 58% 30.27 in 10.0 mi Variable 4.6 mph - N/A   Partly Cloudy
12:54 PM 81.0 °F 81.6 °F 60.1 °F 49% 30.25 in 10.0 mi SSE 4.6 mph - N/A   Mostly Cloudy
1:54 PM 82.9 °F 83.3 °F 61.0 °F 47% 30.23 in 10.0 mi Variable 4.6 mph - N/A   Clear
2:54 PM 82.9 °F 83.3 °F 61.0 °F 47% 30.21 in 10.0 mi SSE 8.1 mph - N/A   Scattered Clouds
3:54 PM 82.0 °F 83.4 °F 64.0 °F 54% 30.19 in 10.0 mi South 11.5 mph - N/A   Mostly Cloudy
4:54 PM 81.0 °F 82.2 °F 63.0 °F 54% 30.18 in 10.0 mi South 12.7 mph 17.3 mph N/A   Mostly Cloudy
5:54 PM 79.0 °F - 64.0 °F 60% 30.17 in 10.0 mi South 10.4 mph - N/A   Scattered Clouds
6:54 PM 77.0 °F - 64.9 °F 66% 30.19 in 10.0 mi South 9.2 mph - N/A   Mostly Cloudy
7:54 PM 75.9 °F - 64.9 °F 69% 30.17 in 10.0 mi South 8.1 mph - N/A   Mostly Cloudy
8:50 PM 68.0 °F - 64.4 °F 88% 30.30 in 1.8 mi NW 11.5 mph 16.1 mph 0.09 in Rain Heavy Rain
8:52 PM 66.2 °F - 64.4 °F 94% 30.30 in 1.2 mi NW 9.2 mph 16.1 mph 0.12 in Rain , Thunderstorm Heavy Thunderstorms and Rain
8:54 PM 66.0 °F - 64.9 °F 96% 30.23 in 0.8 mi North 8.1 mph 16.1 mph 0.15 in Rain , Thunderstorm Heavy Thunderstorms and Rain
9:03 PM 66.2 °F - 64.4 °F 94% 30.29 in 1.0 mi NNE 8.1 mph 17.3 mph 0.50 in Rain , Thunderstorm Heavy Thunderstorms and Rain
9:06 PM 66.2 °F - 64.4 °F 94% 30.30 in 2.0 mi Variable 5.8 mph 17.3 mph 0.51 in Rain , Thunderstorm Thunderstorms and Rain
9:13 PM 66.2 °F - 64.4 °F 94% 30.31 in 5.0 mi North 12.7 mph 20.7 mph 0.51 in Rain , Thunderstorm Light Thunderstorms and Rain
9:33 PM 68.0 °F - 62.6 °F 83% 30.31 in 10.0 mi Variable 3.5 mph - 0.52 in Thunderstorm Thunderstorm
9:38 PM 66.2 °F - 64.4 °F 94% 30.31 in 10.0 mi NW 5.8 mph - 0.52 in   Mostly Cloudy
9:54 PM 66.9 °F - 63.0 °F 87% 30.25 in 10.0 mi NW 8.1 mph - 0.52 in Rain Light Rain
10:54 PM 64.0 °F - 63.0 °F 96% 30.25 in 8.0 mi Calm Calm - 0.00 in   Clear
11:54 PM 64.0 °F - 63.0 °F 96% 30.24 in 8.0 mi Calm Calm - N/A   Clear